Regional Weather Roundup
Issued by NWS

Home | Current Version | Previous Version | Text Only | Print | Product List | Glossary Off
Versions: 1 2 3 4 5 6 7 8 9 10 11 12 13 14 15 16 17 18 19 20 21 22 23 24 25 26 27 28 29 30 31 32 33 34 35 36 37 38 39 40 41 42 43 44 45 46 47 48 49 50

000
ASUS43 KMPX 220710
RWRMN
WEATHER ROUNDUP FOR MINNESOTA
NATIONAL WEATHER SERVICE TWIN CITIES/CHANHASSEN MN
200 AM CDT TUE JUL 22 2014


NOTE: "FAIR" INDICATES FEW OR NO CLOUDS BELOW 12,000 FEET WITH NO
SIGNIFICANT WEATHER AND/OR OBSTRUCTIONS TO VISIBILITY. N/A MEANS
CURRENT SKY AND/OR WEATHER CONDITIONS ARE NOT AVAILABLE.

MNZ060>063-068>070-220800-
   Twin Cities Metro

CITY           SKY/WX    TMP DP  RH WIND       PRES   REMARKS
TWIN CITIES    MOCLDY    82  76  81 S15G21    29.79F
ST PAUL          N/A     80  75  84 S10       29.80S
CRYSTAL        CLOUDY    83  75  77 S12       29.77F HX  90
BLAINE         CLOUDY    82  77  83 S9        29.79S HX  91
LAKEVILLE      MOCLDY    79  73  83 S6        29.82R
EDEN PRAIRIE   CLOUDY    81  76  84 S10       29.79S
SOUTH ST PAUL  MOCLDY    81  73  78 S7        29.81R
LAKE ELMO      FAIR      79  73  83 S9        29.83R
$$
MNZ001>005-007-008-013>017-022>024-027-028-220800-
   Northwest Minnesota

CITY           SKY/WX    TMP DP  RH WIND       PRES   REMARKS
BEMIDJI        CLOUDY    66  65  96 SW6       29.75F
HALLOCK        CLOUDY    63  61  94 NW9       29.86R
ROSEAU         RAIN      63  57  82 N8        29.80R
WARROAD        CLOUDY    64  61  88 N17       29.74R
THIEF RVR FALL CLOUDY    64  63  94 NW13      29.84R
FOSSTON        RAIN      63  61  94 N22G31    29.78R
DETROIT LAKES  CLOUDY    64  63  94 NW17G24   29.80R
MOORHEAD       CLOUDY    68  68 100 N14       29.81R
PARK RAPIDS    CLOUDY    66  65  96 S10       29.73F
$$
MNZ006-009>011-018-025>026-220800-
   North Central Minnesota

CITY           SKY/WX    TMP DP  RH WIND       PRES   REMARKS
BAUDETTE       LGT RAIN  66  64  93 N23G32    29.66F
FLAG ISLAND    RAIN      66  63  88 NE12      29.75F
INTL FALLS     LGT RAIN  68  66  93 NE8       29.63F
WASKISH        CLOUDY    64  64 100 CALM      29.71R
BIG FORK       CLOUDY    66  64  94 S2        29.72
LONGVILLE      CLOUDY    66  64  94 CALM      29.76R
GRAND RAPIDS   CLOUDY    66  63  88 E7        29.67F
ORR            CLOUDY    66  63  88 S6        29.70F
COOK           CLOUDY    66  64  94 S5        29.77F
$$
MNZ012-019>021-037-220800-
   Northeast Minnesota

CITY           SKY/WX    TMP DP  RH WIND       PRES   REMARKS
DULUTH         TSTM      68  64  87 SW8       29.82F
ELY            DRIZZLE   77  72  83 S14       29.75S
HIBBING        LGT RAIN  68  65  90 S3        29.80F
DULUTH HARBOR  TSTM      66  64  94 SW12      29.82S
TWO HARBORS    RAIN      70  63  78 W8G28     29.81R
SILVER BAY     HVY RAIN  72  72 100 S26G41    29.81R
GRAND MARAIS     N/A     59  58  96 VRB3      29.78F
G MARAIS ARPRT CLOUDY    70  64  83 S10       29.83F FOG
$$
MNZ029>031-032-039>041-046>048-054>057-064-220800-
   West Central Minnesota

CITY           SKY/WX    TMP DP  RH WIND       PRES   REMARKS
FERGUS FALLS   PTCLDY    66  64  94 W8        29.84R
WHEATON        CLEAR     64  63  94 W6        29.88R
MORRIS         PTCLDY    66  64  94 NW7       29.84S
ALEXANDRIA     CLOUDY    67  32  27 W10       29.85R
ELBOW LAKE     FAIR      65  64  97 W7        29.84F
WADENA         CLOUDY    64  64 100 SW10      29.78F
GLENWOOD       MOCLDY    66  64  94 W13       29.84S
APPLETON       PTCLDY    68  63  83 NW5       29.85S
BENSON         PTCLDY    64  63  94 W6        29.84S
MADISON        PTCLDY    72  66  83 NW5       29.86R
WILLMAR        FAIR      72  64  78 NW5       29.85S
$$
MNZ033>034-036-042>043-049>051-058-059-220800-
   Central Minnesota

CITY           SKY/WX    TMP DP  RH WIND       PRES   REMARKS
ST CLOUD       CLOUDY    72  67  84 CALM      29.81R
SAUK CENTRE    FAIR      65  64  96 SW5       29.82R
PAYNESVILLE    HVY RAIN  66  63  92 CALM      29.83F
AITKIN         CLOUDY    70  63  78 CALM      29.71F
PINE RIVER     CLOUDY    66  64  94 W8        29.79R
BRAINERD       CLOUDY    65  64  97 SW8       29.74F
STAPLES        CLOUDY    64  64 100 W9        29.80R
LONG PRAIRIE   FAIR      64  63  94 SW8       29.82R
LITTLE FALLS     N/A    N/A N/A N/A S6        29.77
LITCHFIELD     CLOUDY    79  72  78 NW8G17    29.83R
BUFFALO        CLOUDY    81  74  80 W6        29.81R
MAPLE LAKE     CLOUDY    81  76  83 CALM      29.81F
$$
MNZ037-044-045-052-053-220800-
   East Central Minnesota

CITY           SKY/WX    TMP DP  RH WIND       PRES   REMARKS
PRINCETON      CLOUDY    73  68  83 NW3       29.82F THUNDER
MORA           TSTM      64  63  94 CALM      29.82F
CAMBRIDGE      TSTM      77  64  65 NW5       29.79R
RUSH CITY      CLOUDY    79  70  74 NW13G22   29.82S THUNDER
MOOSE LAKE     CLOUDY    68  63  83 S7        29.77F
HINCKLEY       TSTM      70  68  94 SW21G29   29.81F
CLOQUET        TSTM      66  63  88 CALM      29.80F
MCGREGOR       CLOUDY    68  64  88 SE3       29.73F
$$
MNZ071>073-080-081-089-090-097-098-220800-
   Southwest Minnesota

CITY           SKY/WX    TMP DP  RH WIND       PRES   REMARKS
MONTEVIDEO     MOCLDY    70  64  83 N6        29.86R
GRANITE FALLS  MOCLDY    75  69  83 N10G17    29.85R
CANBY          CLEAR     74  64  70 NW9       29.88R
MARSHALL       MOCLDY    79  73  83 N13G20    29.83R
REDWOOD FALLS  PTCLDY    79  76  90 W7        29.81R
OLIVIA         PTCLDY    77  73  88 NW5       29.82R FOG
PIPESTONE      CLEAR     75  73  94 W6        29.88R FOG
WINDOM         CLEAR     79  75  89 SW8       29.84F FOG
WORTHINGTON    CLEAR     79  75  89 SW8       29.87S
TRACY          CLEAR     80  76  89 W5        29.85R
SLAYTON        CLEAR     77  75  93 CALM      29.86R FOG
$$
MNZ065>067-074>077-082>085-091>093-220800-
   South Central Minnesota

CITY           SKY/WX    TMP DP  RH WIND       PRES   REMARKS
MANKATO        PTCLDY    81  73  78 S15       29.82S
NEW ULM        CLEAR     81  79  94 SW8       29.81S
ST JAMES       CLEAR     81  75  83 S10       29.82F
FAIRMONT       CLEAR     79  73  83 S8        29.84S
GLENCOE        CLOUDY    81  74  80 S9G16     29.80S
FARIBAULT      MOCLDY    82  73  74 S9        29.83S
OWATONNA       MOCLDY    81  73  78 S10       29.84S
WASECA         PTCLDY    79  72  78 S13G18    29.86R
ALBERT LEA     MOCLDY    81  75  83 S9G17     29.86S
$$
MNZ078>079-086>088-094>096-220800-
   Southeast Minnesota

CITY           SKY/WX    TMP DP  RH WIND       PRES   REMARKS
ROCHESTER      LGT RAIN  77  72  84 S15G24    29.89F
RED WING       CLOUDY    81  72  74 SE7       29.83S
STANTON        MOCLDY    81  74  78 S10G17    29.81S
DODGE CENTER   CLOUDY    79  73  83 S17       29.86F
WINONA         CLOUDY    79  70  73 S5        29.89S
AUSTIN         CLOUDY    79  73  83 S13       29.87S
PRESTON        CLOUDY    76  74  95 S13G22    29.92S
$$
ABBREVIATIONS USED IN REMARKS
   TC - TEMPERATURES IN CELSIUS
  WCI - WIND CHILL INDEX
   HX - HEAT INDEX
  VSB - VISIBILITY
$$



USA.gov is the U.S. government's official web portal to all federal, state and local government web resources and services.